| time (UTC) | temp F | wind direction | speed knots | gust knots | rain 1hr in | rain 24hr in | rain mn in | humidity % | barometer mb |
| 20260507052550 | 57 | 235 | 6.1 | 5.2 | 0.00 | 0.00 | 0.00 | 54 | |
| 20260507052053 | 57 | 238 | 6.1 | 9.6 | 0.00 | 0.00 | 0.00 | 56 | |
| 20260507051552 | 57 | 235 | 6.1 | 10.4 | 0.00 | 0.00 | 0.00 | 56 | |
| 20260507051055 | 57 | 229 | 7.8 | 9.6 | 0.00 | 0.00 | 0.00 | 56 | |
| 20260507050059 | 57 | 243 | 3.5 | 6.1 | 0.00 | 0.00 | 0.00 | 56 | |
| 20260507045601 | 57 | 229 | 6.1 | 10.4 | 0.00 | 0.00 | 0.00 | 56 | |
| 20260507044603 | 57 | 228 | 5.2 | 7.8 | 0.00 | 0.00 | 0.00 | 56 | |
| 20260507044105 | 57 | 238 | 7.8 | 12.2 | 0.00 | 0.00 | 0.00 | 57 | |
| 20260507043608 | 57 | 222 | 7.0 | 5.2 | 0.00 | 0.00 | 0.00 | 58 | |
| 20260507041614 | 57 | 236 | 8.7 | 10.4 | 0.00 | 0.00 | 0.00 | 58 | |
| 20260507041116 | 57 | 236 | 10.4 | 13.0 | 0.00 | 0.00 | 0.00 | 56 | |
| 20260507040618 | 58 | 217 | 11.3 | 12.2 | 0.00 | 0.00 | 0.00 | 56 | |
| 20260507040120 | 58 | 212 | 11.3 | 9.6 | 0.00 | 0.00 | 0.00 | 55 | |
| 20260507035624 | 58 | 248 | 10.4 | 8.7 | 0.00 | 0.00 | 0.00 | 53 | |
| 20260507035125 | 58 | 240 | 7.0 | 10.4 | 0.00 | 0.00 | 0.00 | 53 | |
| 20260507034624 | 58 | 215 | 9.6 | 12.2 | 0.00 | 0.00 | 0.00 | 52 | |
| 20260507034126 | 58 | 224 | 8.7 | 8.7 | 0.00 | 0.00 | 0.00 | 52 | |
| 20260507033629 | 58 | 224 | 13.9 | 16.5 | 0.00 | 0.00 | 0.00 | 52 | |
| 20260507033131 | 58 | 235 | 9.6 | 16.5 | 0.00 | 0.00 | 0.00 | 51 | |
| 20260507032633 | 58 | 201 | 12.2 | 11.3 | 0.00 | 0.00 | 0.00 | 51 | |
| 20260507032136 | 58 | 221 | 13.9 | 13.9 | 0.00 | 0.00 | 0.00 | 51 | |
| 20260507031635 | 59 | 231 | 13.0 | 13.0 | 0.00 | 0.00 | 0.00 | 50 | |
| 20260507031137 | 59 | 214 | 13.9 | 15.6 | 0.00 | 0.00 | 0.00 | 49 | |
| 20260507030640 | 59 | 225 | 10.4 | 12.2 | 0.00 | 0.00 | 0.00 | 49 | |
| 20260507030142 | 59 | 226 | 13.0 | 9.6 | 0.00 | 0.00 | 0.00 | 47 | |
| 20260507025644 | 60 | 229 | 9.6 | 15.6 | 0.00 | 0.00 | 0.00 | 46 | |
| 20260507024646 | 60 | 236 | 12.2 | 8.7 | 0.00 | 0.00 | 0.00 | 45 | |
| 20260507024148 | 61 | 190 | 13.0 | 13.0 | 0.00 | 0.00 | 0.00 | 43 | |
| 20260507023650 | 61 | 235 | 10.4 | 9.6 | 0.00 | 0.00 | 0.00 | 42 | |
| 20260507023153 | 62 | 225 | 10.4 | 6.1 | 0.00 | 0.00 | 0.00 | 40 | |
| 20260507022655 | 63 | 211 | 12.2 | 9.6 | 0.00 | 0.00 | 0.00 | 39 | |
| 20260507022157 | 63 | 222 | 11.3 | 11.3 | 0.00 | 0.00 | 0.00 | 37 | |
| 20260507021656 | 64 | 195 | 13.0 | 12.2 | 0.00 | 0.00 | 0.00 | 36 | |
| 20260507021159 | 65 | 224 | 9.6 | 10.4 | 0.00 | 0.00 | 0.00 | 34 | |
| 20260507020701 | 65 | 242 | 8.7 | 12.2 | 0.00 | 0.00 | 0.00 | 33 | |
| 20260507020203 | 66 | 219 | 11.3 | 7.0 | 0.00 | 0.00 | 0.00 | 32 | |
| 20260507015705 | 66 | 139 | 7.8 | 6.1 | 0.00 | 0.00 | 0.00 | 30 | |
| 20260507014708 | 67 | 232 | 7.0 | 9.6 | 0.00 | 0.00 | 0.00 | 28 | |
| 20260507014210 | 68 | 219 | 10.4 | 12.2 | 0.00 | 0.00 | 0.00 | 26 | |
| 20260507013711 | 68 | 193 | 11.3 | 7.0 | 0.00 | 0.00 | 0.00 | 25 | |
| 20260507013214 | 69 | 191 | 7.0 | 7.0 | 0.00 | 0.00 | 0.00 | 24 | |
| 20260507012752 | 69 | 219 | 9.6 | 9.6 | 0.00 | 0.00 | 0.00 | 23 | |
| 20260507012716 | 69 | 219 | 9.6 | 9.6 | 0.00 | 0.00 | 0.00 | 23 | |
| 20260507012219 | 70 | 235 | 9.6 | 13.0 | 0.00 | 0.00 | 0.00 | 22 | |
| 20260507011718 | 70 | 228 | 8.7 | 11.3 | 0.00 | 0.00 | 0.00 | 21 | |
| 20260507011220 | 71 | 221 | 11.3 | 10.4 | 0.00 | 0.00 | 0.00 | 20 | |
| 20260507010722 | 71 | 238 | 9.6 | 7.0 | 0.00 | 0.00 | 0.00 | 18 | |
| 20260507010224 | 72 | 203 | 7.8 | 7.0 | 0.00 | 0.00 | 0.00 | 17 | |
| 20260507005727 | 73 | 215 | 10.4 | 10.4 | 0.00 | 0.00 | 0.00 | 16 | |
| 20260507005229 | 73 | 210 | 10.4 | 7.0 | 0.00 | 0.00 | 0.00 | 15 | |
| 20260507004728 | 74 | 225 | 9.6 | 7.0 | 0.00 | 0.00 | 0.00 | 15 | |
| 20260507004231 | 74 | 166 | 8.7 | 7.8 | 0.00 | 0.00 | 0.00 | 14 | |
| 20260507003733 | 75 | 195 | 7.0 | 7.8 | 0.00 | 0.00 | 0.00 | 12 | |
| 20260507003235 | 76 | 249 | 6.1 | 5.2 | 0.00 | 0.00 | 0.00 | 12 | |
| 20260507002737 | 76 | 270 | 7.8 | 7.0 | 0.00 | 0.00 | 0.00 | 12 | |
| 20260507002240 | 77 | 200 | 6.1 | 3.5 | 0.00 | 0.00 | 0.00 | 11 | |
| 20260507001739 | 77 | 235 | 6.1 | 9.6 | 0.00 | 0.00 | 0.00 | 9 | |
| 20260507001241 | 77 | 262 | 0.9 | 3.5 | 0.00 | 0.00 | 0.00 | 6 | |
| 20260507000246 | 77 | 300 | 7.0 | 5.2 | 0.00 | 0.00 | 0.00 | 5 | |
| 20260506235749 | 77 | 345 | 2.6 | 2.6 | 0.00 | 0.00 | 0.00 | 5 | |
| 20260506235251 | 77 | 37 | 6.1 | 6.1 | 0.00 | 0.00 | 0.00 | 5 | |
| 20260506234750 | 77 | 3 | 7.0 | 7.8 | 0.00 | 0.00 | 0.00 | 5 | |
| 20260506234252 | 77 | 15 | 10.4 | 7.8 | 0.00 | 0.00 | 0.00 | 5 | |
| 20260506233257 | 76 | 21 | 5.2 | 5.2 | 0.00 | 0.00 | 0.00 | 5 | |
| 20260506232759 | 76 | 3 | 9.6 | 13.0 | 0.00 | 0.00 | 0.00 | 5 | |
| 20260506232301 | 76 | 11 | 8.7 | 10.4 | 0.00 | 0.00 | 0.00 | 6 | |
| 20260506231800 | 76 | 18 | 11.3 | 15.6 | 0.00 | 0.00 | 0.00 | 5 | |
| 20260506231303 | 77 | 25 | 10.4 | 11.3 | 0.00 | 0.00 | 0.00 | 6 | |
| 20260506230805 | 77 | 8 | 9.6 | 7.8 | 0.00 | 0.00 | 0.00 | 6 | |
| 20260506230307 | 77 | 338 | 9.6 | 8.7 | 0.00 | 0.00 | 0.00 | 6 | |
| 20260506224811 | 76 | 23 | 8.7 | 6.1 | 0.00 | 0.00 | 0.00 | 6 | |
| 20260506224313 | 76 | 41 | 13.0 | 16.5 | 0.00 | 0.00 | 0.00 | 6 | |
| 20260506223816 | 76 | 46 | 11.3 | 8.7 | 0.00 | 0.00 | 0.00 | 6 | |
| 20260506223318 | 76 | 39 | 10.4 | 10.4 | 0.00 | 0.00 | 0.00 | 6 | |
| 20260506222820 | 76 | 11 | 9.6 | 11.3 | 0.00 | 0.00 | 0.00 | 6 | |
| 20260506222323 | 76 | 1 | 8.7 | 5.2 | 0.00 | 0.00 | 0.00 | 6 | |
| 20260506221822 | 76 | 347 | 6.1 | 6.1 | 0.00 | 0.00 | 0.00 | 6 | |
| 20260506221324 | 75 | 52 | 4.3 | 2.6 | 0.00 | 0.00 | 0.00 | 7 | |
| 20260506220827 | 76 | 52 | 0.0 | 0.0 | 0.00 | 0.13 | 0.00 | 6 | |
| 20260506220329 | 75 | 28 | 8.7 | 10.4 | 0.00 | 0.00 | 0.00 | 7 | |
| 20260506215831 | 75 | 28 | 9.6 | 12.2 | 0.00 | 0.00 | 0.00 | 7 | |
| 20260506215334 | 75 | 48 | 10.4 | 8.7 | 0.00 | 0.00 | 0.00 | 7 | |
| 20260506214833 | 75 | 15 | 6.1 | 8.7 | 0.00 | 0.00 | 0.00 | 8 | |
| 20260506214336 | 75 | 332 | 8.7 | 9.6 | 0.00 | 0.00 | 0.00 | 8 | |
| 20260506213837 | 75 | 356 | 7.8 | 6.1 | 0.00 | 0.00 | 0.00 | 8 | |
| 20260506213339 | 75 | 49 | 7.8 | 10.4 | 0.00 | 0.00 | 0.00 | 8 | |
| 20260506212842 | 75 | 62 | 5.2 | 6.1 | 0.00 | 0.00 | 0.00 | 8 | |
| 20260506211843 | 74 | 41 | 8.7 | 7.8 | 0.00 | 0.00 | 0.00 | 9 | |
| 20260506211346 | 74 | 73 | 7.0 | 8.7 | 0.00 | 0.00 | 0.00 | 9 | |
| 20260506210848 | 74 | 60 | 7.8 | 8.7 | 0.00 | 0.00 | 0.00 | 9 | |
| 20260506205854 | 74 | 42 | 5.2 | 5.2 | 0.00 | 0.00 | 0.00 | 9 | |
| 20260506205356 | 74 | 45 | 10.4 | 5.2 | 0.00 | 0.00 | 0.00 | 9 | |
| 20260506204854 | 74 | 45 | 10.4 | 10.4 | 0.00 | 0.00 | 0.00 | 9 | |
| 20260506204356 | 74 | 18 | 8.7 | 11.3 | 0.00 | 0.00 | 0.00 | 9 | |
| 20260506203859 | 74 | 86 | 4.3 | 2.6 | 0.00 | 0.00 | 0.00 | 9 | |
| 20260506203401 | 74 | 69 | 6.1 | 8.7 | 0.00 | 0.00 | 0.00 | 9 | |
| 20260506202903 | 73 | 55 | 10.4 | 5.2 | 0.00 | 0.00 | 0.00 | 9 | |
| 20260506202407 | 73 | 62 | 9.6 | 8.7 | 0.00 | 0.00 | 0.00 | 9 | |
| 20260506201905 | 73 | 32 | 9.6 | 10.4 | 0.00 | 0.00 | 0.00 | 8 | |
| 20260506201407 | 73 | 4 | 7.8 | 2.6 | 0.00 | 0.00 | 0.00 | 9 | |
| 20260506200412 | 74 | 11 | 3.5 | 5.2 | 0.00 | 0.00 | 0.00 | 9 | |
| 20260506195914 | 73 | 42 | 2.6 | 6.1 | 0.00 | 0.00 | 0.00 | 9 | |
| 20260506195418 | 73 | 7 | 4.3 | 6.1 | 0.00 | 0.00 | 0.00 | 9 | |
| 20260506194916 | 73 | 359 | 7.0 | 5.2 | 0.00 | 0.00 | 0.00 | 10 | |
| 20260506194418 | 72 | 359 | 4.3 | 7.8 | 0.00 | 0.00 | 0.00 | 11 | |
| 20260506193921 | 71 | 20 | 7.8 | 7.0 | 0.00 | 0.00 | 0.00 | 12 | |
| 20260506193423 | 71 | 27 | 8.7 | 8.7 | 0.00 | 0.00 | 0.00 | 12 | |
| 20260506192926 | 71 | 359 | 9.6 | 10.4 | 0.00 | 0.00 | 0.00 | 12 | |
| 20260506192428 | 70 | 349 | 11.3 | 9.6 | 0.00 | 0.00 | 0.00 | 12 | |
| 20260506191927 | 70 | 13 | 9.6 | 8.7 | 0.00 | 0.00 | 0.00 | 12 | |
| 20260506191429 | 70 | 347 | 8.7 | 10.4 | 0.00 | 0.00 | 0.00 | 13 | |
| 20260506190931 | 70 | 7 | 10.4 | 11.3 | 0.00 | 0.00 | 0.00 | 13 | |
| 20260506190434 | 70 | 309 | 7.8 | 10.4 | 0.00 | 0.00 | 0.00 | 13 | |
| 20260506185936 | 70 | 3 | 5.2 | 5.2 | 0.00 | 0.00 | 0.00 | 13 | |
| 20260506185439 | 69 | 325 | 7.8 | 4.3 | 0.00 | 0.00 | 0.00 | 13 | |
| 20260506184440 | 69 | 345 | 8.7 | 8.7 | 0.00 | 0.00 | 0.00 | 15 | |
| 20260506183943 | 69 | 332 | 7.0 | 4.3 | 0.00 | 0.00 | 0.00 | 15 | |
| 20260506183445 | 69 | 14 | 7.8 | 11.3 | 0.00 | 0.00 | 0.00 | 15 | |
| 20260506182947 | 69 | 352 | 9.6 | 6.1 | 0.00 | 0.00 | 0.00 | 15 | |
| 20260506182451 | 69 | 4 | 7.0 | 6.1 | 0.00 | 0.00 | 0.00 | 15 | |
| 20260506181949 | 68 | 10 | 7.8 | 7.0 | 0.00 | 0.00 | 0.00 | 15 | |
| 20260506181451 | 68 | 356 | 7.0 | 5.2 | 0.00 | 0.00 | 0.00 | 16 | |
| 20260506180954 | 68 | 21 | 7.8 | 7.0 | 0.00 | 0.00 | 0.00 | 16 | |
| 20260506180456 | 68 | 27 | 4.3 | 7.8 | 0.00 | 0.00 | 0.00 | 17 | |
| 20260506175959 | 67 | 322 | 8.7 | 10.4 | 0.00 | 0.00 | 0.00 | 17 | |
| 20260506175501 | 67 | 311 | 7.8 | 4.3 | 0.00 | 0.00 | 0.00 | 18 | |
| 20260506175000 | 67 | 304 | 9.6 | 4.3 | 0.00 | 0.00 | 0.00 | 19 | |
| 20260506174004 | 66 | 339 | 7.8 | 9.6 | 0.00 | 0.00 | 0.00 | 20 | |
| 20260506173507 | 66 | 343 | 7.8 | 4.3 | 0.00 | 0.00 | 0.00 | 20 | |
| 20260506173009 | 66 | 34 | 9.6 | 9.6 | 0.00 | 0.00 | 0.00 | 21 | |
| 20260506172512 | 66 | 338 | 8.7 | 7.8 | 0.00 | 0.00 | 0.00 | 22 | |
| 20260506172011 | 65 | 325 | 7.0 | 9.6 | 0.00 | 0.00 | 0.00 | 23 | |
| 20260506171513 | 65 | 336 | 7.8 | 6.1 | 0.00 | 0.00 | 0.00 | 24 | |
| 20260506171015 | 65 | 6 | 8.7 | 5.2 | 0.00 | 0.00 | 0.00 | 23 | |
| 20260506170518 | 64 | 330 | 3.5 | 2.6 | 0.00 | 0.00 | 0.00 | 25 | |
| 20260506170020 | 64 | 316 | 4.3 | 4.3 | 0.00 | 0.00 | 0.00 | 27 | |
| 20260506165523 | 63 | 30 | 4.3 | 2.6 | 0.00 | 0.00 | 0.00 | 27 | |
| 20260506165022 | 62 | 333 | 5.2 | 1.7 | 0.00 | 0.00 | 0.00 | 29 | |
| 20260506164027 | 61 | 338 | 5.2 | 3.5 | 0.00 | 0.00 | 0.00 | 31 | |
| 20260506163529 | 61 | 8 | 0.0 | 0.0 | 0.00 | 0.00 | 0.00 | 31 | |
| 20260506163031 | 60 | 329 | 0.0 | 0.0 | 0.00 | 0.00 | 0.00 | 32 | |
| 20260506162535 | 60 | 21 | 6.1 | 5.2 | 0.00 | 0.00 | 0.00 | 33 | |
| 20260506162033 | 60 | 359 | 4.3 | 2.6 | 0.00 | 0.00 | 0.00 | 34 | |
| 20260506161037 | 59 | 323 | 0.0 | 0.0 | 0.00 | 0.00 | 0.00 | 36 | |
| 20260506160540 | 58 | 347 | 0.9 | 2.6 | 0.00 | 0.00 | 0.00 | 37 | |
| 20260506160042 | 58 | 302 | 0.0 | 0.0 | 0.00 | 0.00 | 0.00 | 38 | |
| 20260506155545 | 58 | 333 | 0.0 | 0.0 | 0.00 | 0.00 | 0.00 | 38 | |
| 20260506155045 | 57 | 335 | 2.6 | 6.1 | 0.00 | 0.00 | 0.00 | 39 | |
| 20260506154546 | 57 | 336 | 6.1 | 0.0 | 0.00 | 0.00 | 0.00 | 39 | |
| 20260506154048 | 56 | 122 | 0.0 | 0.0 | 0.00 | 0.00 | 0.00 | 40 | |
| 20260506153551 | 56 | 122 | 0.0 | 0.0 | 0.00 | 0.00 | 0.00 | 41 | |
| 20260506153053 | 55 | 122 | 0.0 | 0.0 | 0.00 | 0.00 | 0.00 | 41 | |
| 20260506152556 | 55 | 122 | 0.0 | 0.0 | 0.00 | 0.00 | 0.00 | 42 | |
| 20260506152055 | 55 | 122 | 0.0 | 0.0 | 0.00 | 0.00 | 0.00 | 43 | |
| 20260506151557 | 54 | 122 | 0.0 | 0.0 | 0.00 | 0.00 | 0.00 | 44 | |
| 20260506151059 | 54 | 122 | 0.0 | 0.0 | 0.00 | 0.00 | 0.00 | 45 | |
| 20260506150104 | 53 | 122 | 0.0 | 0.0 | 0.00 | 0.00 | 0.00 | 47 | |
| 20260506145606 | 53 | 122 | 0.0 | 0.0 | 0.00 | 0.00 | 0.00 | 48 | |
| 20260506145105 | 53 | 122 | 0.0 | 0.0 | 0.00 | 0.00 | 0.00 | 49 | |
| 20260506144608 | 52 | 122 | 0.0 | 0.0 | 0.00 | 0.00 | 0.00 | 50 | |
| 20260506144110 | 52 | 122 | 0.0 | 0.0 | 0.00 | 0.00 | 0.00 | 52 | |
| 20260506143612 | 51 | 122 | 0.0 | 0.0 | 0.00 | 0.00 | 0.00 | 54 | |
| 20260506143152 | 51 | 122 | 0.0 | 0.0 | 0.00 | 0.00 | 0.00 | 56 | |
| 20260506143115 | 51 | 122 | 0.0 | 0.0 | 0.00 | 0.00 | 0.00 | 56 | |
| 20260506142618 | 50 | 122 | 0.0 | 0.0 | 0.00 | 0.00 | 0.00 | 59 | |
| 20260506142116 | 50 | 122 | 0.0 | 0.0 | 0.00 | 0.00 | 0.00 | 61 | |
| 20260506141657 | 49 | 122 | 0.0 | 0.0 | 0.00 | 0.00 | 0.00 | 64 | |
| 20260506141619 | 49 | 122 | 0.0 | 0.0 | 0.00 | 0.00 | 0.00 | 64 | |
| 20260506141121 | 48 | 122 | 0.0 | 0.0 | 0.00 | 0.00 | 0.00 | 66 | |
| 20260506140623 | 48 | 122 | 0.0 | 0.0 | 0.00 | 0.00 | 0.00 | 68 | |
| 20260506140126 | 47 | 122 | 0.0 | 0.0 | 0.00 | 0.00 | 0.00 | 70 | |
| 20260506135628 | 47 | 122 | 0.0 | 0.0 | 0.00 | 0.00 | 0.00 | 71 | |
| 20260506135127 | 46 | 122 | 0.0 | 0.0 | 0.00 | 0.00 | 0.00 | 73 | |
| 20260506134631 | 46 | 122 | 0.0 | 0.0 | 0.00 | 0.00 | 0.00 | ||
| 20260506133634 | 45 | 122 | 0.0 | 0.0 | 0.00 | 0.00 | 0.00 | 76 | |
| 20260506133136 | 45 | 122 | 0.0 | 0.0 | 0.00 | 0.00 | 0.00 | 78 | |
| 20260506132639 | 44 | 122 | 0.0 | 0.0 | 0.00 | 0.00 | 0.00 | 80 | |
| 20260506131641 | 44 | 122 | 0.0 | 2.6 | 0.00 | 0.00 | 0.00 | 82 | |
| 20260506131143 | 44 | 142 | 4.3 | 4.3 | 0.00 | 0.00 | 0.00 | 84 | |
| 20260506130645 | 44 | 149 | 4.3 | 4.3 | 0.00 | 0.00 | 0.00 | 85 | |
| 20260506130147 | 43 | 150 | 5.2 | 5.2 | 0.00 | 0.00 | 0.00 | 87 | |
| 20260506125650 | 43 | 165 | 6.1 | 6.1 | 0.00 | 0.00 | 0.00 | 89 | |
| 20260506125150 | 43 | 173 | 6.1 | 6.1 | 0.00 | 0.00 | 0.00 | 91 | |
| 20260506124651 | 42 | 173 | 6.1 | 6.1 | 0.00 | 0.00 | 0.00 | 92 | |
| 20260506124154 | 42 | 173 | 5.2 | 6.1 | 0.00 | 0.00 | 0.00 | 94 | |
| 20260506123656 | 41 | 170 | 5.2 | 5.2 | 0.00 | 0.00 | 0.00 | 94 | |
| 20260506123337 | 41 | 165 | 5.2 | 5.2 | 0.00 | 0.00 | 0.00 | 96 | |
| 20260506123200 | 41 | 165 | 5.2 | 5.2 | 0.00 | 0.00 | 0.00 | 96 | |
| 20260506122701 | 40 | 169 | 5.2 | 6.1 | 0.00 | 0.00 | 0.00 | 96 | |
| 20260506122200 | 40 | 173 | 5.2 | 5.2 | 0.00 | 0.00 | 0.00 | 95 | |
| 20260506121702 | 40 | 170 | 4.3 | 5.2 | 0.00 | 0.00 | 0.00 | 95 | |
| 20260506120707 | 40 | 197 | 4.3 | 4.3 | 0.00 | 0.00 | 0.00 | 95 | |
| 20260506120209 | 40 | 205 | 4.3 | 4.3 | 0.00 | 0.00 | 0.00 | 95 | |
| 20260506115711 | 40 | 215 | 5.2 | 5.2 | 0.00 | 0.00 | 0.00 | 95 | |
| 20260506115210 | 40 | 195 | 6.1 | 5.2 | 0.00 | 0.00 | 0.00 | 95 | |
| 20260506114713 | 41 | 215 | 6.1 | 5.2 | 0.00 | 0.00 | 0.00 | 95 | |
| 20260506114215 | 41 | 207 | 6.1 | 6.1 | 0.00 | 0.00 | 0.00 | 95 | |
| 20260506113718 | 41 | 210 | 6.1 | 5.2 | 0.00 | 0.00 | 0.00 | 95 | |
| 20260506113220 | 41 | 231 | 5.2 | 5.2 | 0.00 | 0.00 | 0.00 | 95 | |
| 20260506112723 | 41 | 226 | 6.1 | 7.0 | 0.00 | 0.00 | 0.00 | 95 | |
| 20260506112221 | 41 | 214 | 7.0 | 7.0 | 0.00 | 0.00 | 0.00 | 95 | |
| 20260506111801 | 41 | 233 | 5.2 | 4.3 | 0.00 | 0.00 | 0.00 | 95 | |
| 20260506111724 | 41 | 233 | 5.2 | 4.3 | 0.00 | 0.00 | 0.00 | 95 | |
| 20260506111226 | 41 | 232 | 7.0 | 5.2 | 0.00 | 0.00 | 0.00 | 95 | |
| 20260506110728 | 41 | 242 | 6.1 | 5.2 | 0.00 | 0.00 | 0.00 | 95 | |
| 20260506110231 | 41 | 239 | 6.1 | 7.0 | 0.00 | 0.00 | 0.00 | 94 | |
| 20260506105232 | 41 | 221 | 7.0 | 7.8 | 0.00 | 0.00 | 0.00 | 94 | |
| 20260506104735 | 41 | 224 | 7.0 | 5.2 | 0.00 | 0.00 | 0.00 | 94 | |
| 20260506104237 | 41 | 231 | 7.0 | 6.1 | 0.00 | 0.00 | 0.00 | 94 | |
| 20260506103739 | 41 | 212 | 7.0 | 5.2 | 0.00 | 0.00 | 0.00 | 94 | |
| 20260506103242 | 42 | 218 | 6.1 | 7.8 | 0.00 | 0.00 | 0.00 | 94 | |
| 20260506102744 | 42 | 228 | 7.0 | 6.1 | 0.00 | 0.00 | 0.00 | 94 | |
| 20260506102243 | 42 | 236 | 7.0 | 4.3 | 0.00 | 0.00 | 0.00 | 94 | |
| 20260506101745 | 42 | 233 | 7.0 | 8.7 | 0.00 | 0.00 | 0.00 | 94 | |
| 20260506101248 | 42 | 224 | 7.0 | 8.7 | 0.00 | 0.00 | 0.00 | 94 | |
| 20260506100753 | 42 | 233 | 7.8 | 7.8 | 0.00 | 0.00 | 0.00 | 94 | |
| 20260506100252 | 42 | 218 | 7.8 | 6.1 | 0.00 | 0.00 | 0.00 | 94 | |
| 20260506095755 | 42 | 231 | 7.8 | 8.7 | 0.00 | 0.00 | 0.00 | 95 | |
| 20260506095254 | 42 | 225 | 7.0 | 7.8 | 0.00 | 0.00 | 0.00 | 94 | |
| 20260506094757 | 42 | 233 | 7.8 | 7.8 | 0.00 | 0.00 | 0.00 | 95 | |
| 20260506094259 | 42 | 228 | 8.7 | 9.6 | 0.00 | 0.00 | 0.00 | 95 | |
| 20260506093802 | 42 | 238 | 7.8 | 7.8 | 0.00 | 0.00 | 0.00 | 95 | |
| 20260506093303 | 42 | 236 | 7.8 | 7.0 | 0.00 | 0.00 | 0.00 | 95 | |
| 20260506092806 | 42 | 235 | 6.1 | 7.0 | 0.00 | 0.00 | 0.00 | 95 | |
| 20260506092306 | 42 | 242 | 7.0 | 5.2 | 0.00 | 0.00 | 0.00 | 95 | |
| 20260506091807 | 42 | 239 | 8.7 | 7.8 | 0.00 | 0.00 | 0.00 | 95 | |
| 20260506091309 | 42 | 228 | 8.7 | 7.0 | 0.00 | 0.00 | 0.00 | 96 | |
| 20260506090812 | 42 | 242 | 9.6 | 9.6 | 0.00 | 0.00 | 0.00 | 96 | |
| 20260506090314 | 42 | 232 | 10.4 | 9.6 | 0.00 | 0.00 | 0.00 | 96 | |
| 20260506085901 | 42 | 252 | 8.7 | 7.8 | 0.00 | 0.00 | 0.00 | 96 | |
| 20260506085816 | 42 | 252 | 8.7 | 7.8 | 0.00 | 0.00 | 0.00 | 96 | |
| 20260506085316 | 42 | 243 | 9.6 | 7.8 | 0.00 | 0.00 | 0.00 | 96 | |
| 20260506084818 | 43 | 235 | 12.2 | 13.0 | 0.00 | 0.00 | 0.00 | 96 | |
| 20260506084320 | 43 | 245 | 7.8 | 7.8 | 0.00 | 0.00 | 0.00 | 96 | |
| 20260506083823 | 43 | 231 | 9.6 | 13.0 | 0.00 | 0.00 | 0.00 | 96 | |
| 20260506082827 | 43 | 243 | 7.8 | 6.1 | 0.00 | 0.00 | 0.00 | 97 | |
| 20260506082327 | 43 | 239 | 8.7 | 6.1 | 0.00 | 0.00 | 0.00 | 97 | |
| 20260506081829 | 43 | 243 | 10.4 | 7.8 | 0.00 | 0.00 | 0.00 | 97 | |
| 20260506081539 | 43 | 229 | 10.4 | 10.4 | 0.00 | 0.00 | 0.00 | 97 | |
| 20260506081331 | 43 | 229 | 10.4 | 10.4 | 0.00 | 0.00 | 0.00 | 97 | |
| 20260506080834 | 43 | 222 | 11.3 | 7.8 | 0.00 | 0.00 | 0.00 | 97 | |
| 20260506080454 | 42 | 219 | 8.7 | 12.2 | 0.00 | 0.00 | 0.00 | 97 | |
| 20260506080336 | 42 | 219 | 8.7 | 12.2 | 0.00 | 0.00 | 0.00 | 97 | |
| 20260506073347 | 43 | 214 | 8.7 | 9.6 | 0.00 | 0.00 | 0.00 | 95 | |
| 20260506072849 | 43 | 222 | 8.7 | 13.0 | 0.00 | 0.00 | 0.00 | 95 | |
| 20260506072348 | 43 | 255 | 10.4 | 7.8 | 0.00 | 0.00 | 0.00 | 95 | |
| 20260506071851 | 43 | 207 | 8.7 | 7.8 | 0.00 | 0.00 | 0.00 | 94 | |
| 20260506071353 | 43 | 219 | 11.3 | 13.0 | 0.00 | 0.00 | 0.00 | 94 | |
| 20260506070358 | 43 | 228 | 11.3 | 9.6 | 0.00 | 0.00 | 0.00 | 93 | |
| 20260506062410 | 43 | 208 | 9.6 | 6.1 | 0.00 | 0.00 | 0.00 | 89 | |
| 20260506061912 | 44 | 232 | 11.3 | 11.3 | 0.00 | 0.00 | 0.00 | 89 | |
| 20260506061415 | 44 | 238 | 9.6 | 8.7 | 0.00 | 0.00 | 0.00 | 88 | |
| 20260506060917 | 44 | 235 | 8.7 | 6.1 | 0.00 | 0.00 | 0.00 | 87 | |
| 20260506060420 | 44 | 233 | 8.7 | 6.1 | 0.00 | 0.00 | 0.00 | 87 |